Location: Drocourt
(49.0571°N, 1.7669°E)
Time: 06:54:30
(UTC+00:00)

SR - Pass Details

Date: 26 April 2024
Orbit: 579 x 859 km, 66.7° (Epoch: 26 May)

Event Time Altitude Azimuth Distance (km) Brightness Sun altitude
Exits shadow 01:26:40 35° 275° (W) 1,200 ? -23.8°
Maximum altitude 01:28:05 43° 314° (NW) 1,037 ? -23.7°
Drops below altitude 10° 01:32:51 10° 26° (NNE) 2,180 ? -23.4°
Sets 01:35:12 0° 34° (NNE) 3,054 ? -23.2°
